This demonstration page uses our WeatherBlox Daily Observations layout. Learn more.

39.92423, -83.80882

Hourly Observations for June 17, 2016

Temp ( °F °C ) Dew Point ( °F °C ) Humidity (%) Winds ( mph kmh ) Pressure ( in mb ) Visibility ( mi km ) Precip ( " mm )
12:20 am 00:20 Cloudy 66 19 63 17 88 88 WNW 13 20 29.83 1010 10 16.0934 0 0
12:56 am 00:56 Cloudy 66 18.8 63 17.2 90 90 NW 9 15 29.83 1010 10 16.0934 0 0
1:29 am 01:29 Cloudy 64 18 64 18 100 100 WNW 10 17 29.83 1010 10 16.0934 0 0
1:49 am 01:49 Cloudy with Rain 64 18 64 18 100 100 WNW 9 15 29.83 1010 1.75 2.816345 0 0.0254
1:56 am 01:56 Cloudy with Light Rain 65 18.3 65 18.3 100 100 WNW 9 15 29.84 1010 1.75 2.816345 0 0.0254
2:03 am 02:03 Cloudy with Light Rain 64 18 64 18 100 100 WNW 10 17 29.83 1010 2.5 4.02335 0 0.0254
2:19 am 02:19 Cloudy with Light Rain 64 18 64 18 100 100 WNW 8 13 29.83 1010 2 3.21868 0.01 0.254
2:31 am 02:31 Cloudy with Mist and Fog 64 18 64 18 100 100 WNW 9 15 29.83 1010 3 4.82802 0.01 0.254
2:44 am 02:44 Cloudy with Mist and Fog 64 18 64 18 100 100 WNW 8 13 29.85 1011 2.5 4.02335 0.01 0.254
2:56 am 02:56 Cloudy with Mist and Fog 65 18.3 65 18.3 100 100 WNW 9 15 29.84 1011 3 4.82802 0.01 0.254
3:09 am 03:09 Cloudy with Mist and Fog 64 18 64 18 100 100 WNW 9 15 29.85 1011 2.5 4.02335 0 0
3:18 am 03:18 Cloudy with Mist and Fog 64 18 64 18 100 100 NW 8 13 29.85 1011 4 6.43736 0 0
3:28 am 03:28 Cloudy with Mist and Fog 64 18 64 18 100 100 NW 8 13 29.85 1011 5 8.0467 0 0
3:56 am 03:56 Cloudy 65 18.3 65 18.3 100 100 NNW 10 17 29.84 1010 7 11.26538 0 0
4:10 am 04:10 Cloudy 64 18 64 18 100 100 NNW 12 19 29.83 1010 7 11.26538 0 0
4:46 am 04:46 Partly Cloudy 64 18 64 18 100 100 NW 10 17 29.85 1011 7 11.26538 0 0
4:56 am 04:56 Partly Cloudy 65 18.3 65 18.3 100 100 NW 10 17 29.84 1011 7 11.26538 0 0
5:56 am 05:56 Mostly Cloudy 64 17.7 64 17.7 100 100 N 12 19 29.86 1011 10 16.0934 0 0
6:05 am 06:05 Partly Cloudy 64 18 63 17 94 94 N 12 19 29.85 1011 10 16.0934 0 0
6:25 am 06:25 Mostly Cloudy 64 18 63 17 94 94 N 13 20 29.88 1012 10 16.0934 0 0
6:38 am 06:38 Cloudy 64 18 63 17 94 94 N 14 22 29.88 1012 10 16.0934 0 0
6:56 am 06:56 Mostly Cloudy 65 18.3 63 17.2 93 93 N 10 17 29.88 1012 10 16.0934 0 0
7:56 am 07:56 Mostly Cloudy 66 18.8 63 17.2 90 90 NNE 14 22 29.91 1013 10 16.0934 0 0
8:20 am 08:20 Partly Cloudy 68 20 64 18 88 88 NNE 8 13 29.91 1013 10 16.0934 0 0
8:56 am 08:56 Mostly Sunny 70 21.1 65 18.3 84 84 NE 12 19 29.93 1014 10 16.0934 0 0
9:15 am 09:15 Mostly Cloudy 70 21 64 18 83 83 NE 12 19 29.94 1014 10 16.0934 0 0
9:56 am 09:56 Cloudy 70 21.1 65 18.3 84 84 NE 13 20 29.96 1015 10 16.0934 0 0
10:56 am 10:56 Mostly Cloudy 71 21.6 66 18.8 84 84 NE 9 15 29.98 1015 10 16.0934 0 0
11:04 am 11:04 Mostly Cloudy 73 23 66 19 78 78 NE 10 17 29.97 1015 10 16.0934 0 0
11:28 am 11:28 Partly Cloudy 75 24 66 19 74 74 ENE 10 17 29.97 1015 10 16.0934 0 0
11:56 am 11:56 Mostly Sunny 78 25.5 66 18.8 67 67 NE 12 19 29.97 1015 10 16.0934 0 0
12:56 pm 12:56 Mostly Sunny 81 27.2 66 18.8 60 60 NNE 17 28 29.98 1015 10 16.0934 0 0
1:56 pm 13:56 Mostly Sunny 83 28.3 65 18.3 55 55 N 9 15 29.98 1015 10 16.0934 0 0
2:56 pm 14:56 Partly Cloudy 83 28.3 64 17.7 53 53 NE 15 24 29.98 1015 10 16.0934 0 0
3:56 pm 15:56 Mostly Sunny 85 29.4 63 17.2 48 48 NNE 13 20 29.97 1015 10 16.0934 0 0
4:56 pm 16:56 Sunny 87 30.5 61 16.1 42 42 ENE 14 22 29.96 1015 10 16.0934 0 0
5:56 pm 17:56 Mostly Sunny 86 30 59 15 40 40 NNE 14 22 29.97 1015 10 16.0934 0 0
6:56 pm 18:56 Mostly Sunny 85 29.4 59 15 42 42 NNE 12 19 29.99 1016 10 16.0934 0 0
7:56 pm 19:56 Sunny 80 26.6 60 15.5 51 51 NE 9 15 30.01 1016 10 16.0934 0 0
8:56 pm 20:56 Mostly Sunny 75 23.8 59 15 58 58 NE 7 11 30.02 1017 10 16.0934 0 0
9:56 pm 21:56 Clear 75 23.8 53 11.6 46 46 NE 16 26 30.05 1018 10 16.0934 0 0
10:56 pm 22:56 Clear 68 20 51 10.5 54 54 NE 8 13 30.08 1019 10 16.0934 0 0
11:56 pm 23:56 Mostly Clear 65 18.3 52 11.1 63 63 NE 7 11 30.09 1019 10 16.0934 0 0

Powered by AerisWeather